LKMT Weather Reports


Display with metric or nautical units.
time (UTC)temp
F
wind
direction
speed
MPH
gust
MPH
rain 1hr
in
rain 24hr
in
rain mn
in
humidity
%
barometer
mb
20260504120240 75 200 17.0 0.0 0.00 0.00 0.00 29 1014.0
20260504110240 75 210 20.0 0.0 0.00 0.00 0.00 33 1015.0
20260504100233 73 220 20.0 0.0 0.00 0.00 0.00 33 1015.0
20260504080239 68 190 14.0 0.0 0.00 0.00 0.00 34 1015.0
20260504070230 66 190 16.0 0.0 0.00 0.00 0.00 34 1015.0
20260504060241 64 200 18.0 0.0 0.00 0.00 0.00 39 1015.0
20260504050245 59 220 12.0 0.0 0.00 0.00 0.00 44 1016.0
20260504043223 57 220 10.0 0.0 0.00 0.00 0.00 47 1015.0
20260504042157 55 240 7.0 0.0 0.00 0.00 0.00 47
20260504040233 48 240 8.0 0.0 0.00 0.00 0.00 61 1015.0
20260504033230 48 240 7.0 0.0 0.00 0.00 0.00 57 1015.0
20260504032155 50 250 9.0 0.0 0.00 0.00 0.00 53
20260504030232 46 250 8.0 0.0 0.00 0.00 0.00 61 1015.0
20260504023223 50 260 10.0 0.0 0.00 0.00 0.00 57 1015.0
20260504022158 57 240 7.0 0.0 0.00 0.00 0.00 38
20260504020240 50 250 7.0 0.0 0.00 0.00 0.00 53 1015.0
20260504013224 48 260 9.0 0.0 0.00 0.00 0.00 61 1015.0
20260504012155 48 0 5.0 0.0 0.00 0.00 0.00 57
20260504010234 50 230 5.0 0.0 0.00 0.00 0.00 57 1015.0
20260504003224 48 230 6.0 0.0 0.00 0.00 0.00 61 1015.0
20260504002156 50 0 2.0 0.0 0.00 0.00 0.00 53
20260504000241 48 260 3.0 0.0 0.00 0.00 0.00 61 1015.0
20260503233224 52 280 3.0 0.0 0.00 0.00 0.00 53 1016.0
20260503232159 54 280 5.0 0.0 0.00 0.00 0.00 46
20260503230232 54 290 5.0 0.0 0.00 0.00 0.00 50 1016.0
20260503223224 54 260 5.0 0.0 0.00 0.00 0.00 50 1016.0
20260503222156 63 190 9.0 0.0 0.00 0.00 0.00 29
20260503220233 61 190 8.0 0.0 0.00 0.00 0.00 33 1016.0
20260503213224 61 190 9.0 0.0 0.00 0.00 0.00 36 1016.0
20260503212157 63 180 7.0 0.0 0.00 0.00 0.00 31
20260503210233 61 170 7.0 0.0 0.00 0.00 0.00 36 1016.0
20260503203224 61 210 10.0 0.0 0.00 0.00 0.00 36 1016.0
20260503202156 61 210 9.0 0.0 0.00 0.00 0.00 33
20260503200237 61 210 10.0 0.0 0.00 0.00 0.00 36 1016.0
20260503193224 61 210 10.0 0.0 0.00 0.00 0.00 36 1016.0
20260503192155 64 200 9.0 0.0 0.00 0.00 0.00 29
20260503190239 63 200 9.0 0.0 0.00 0.00 0.00 33 1016.0
20260503183231 64 210 10.0 0.0 0.00 0.00 0.00 29 1016.0
20260503182157 66 220 12.0 0.0 0.00 0.00 0.00 25
20260503180235 64 220 12.0 0.0 0.00 0.00 0.00 31 1016.0
20260503173231 68 210 12.0 0.0 0.00 0.00 0.00 30 1016.0
20260503172157 72 220 14.0 0.0 0.00 0.00 0.00 23
20260503170239 70 220 14.0 0.0 0.00 0.00 0.00 28 1015.0
20260503150232 73 210 15.0 0.0 0.00 0.00 0.00 29 1016.0
20260503140231 75 210 14.0 0.0 0.00 0.00 0.00 29 1017.0
20260503130239 73 220 16.0 0.0 0.00 0.00 0.00 29 1017.0